Showing default

CAPELLA-15 (ACADIA), 60544

Orbit data source: Space-Track

CAPELLA-15 (ACADIA), 60544 is a payload satellite owned by Capella Space (US) in SSO that was launched on Fri, 16 Aug 2024 UTC via an FALCON 9 launch vehicle from the Air Force Western Test Range (AFWTR). Payload-class satellites include a variety of spacecraft equipped with specific instruments for various scientific and technological missions. These include communications satellites like Starlink; space stations such as the ISS; scientific satellites like the Hubble; Earth observation satellites from companies like Planet Labs, Umbra, and HawkEye 360; GPS; miniature CubeSats for education and research; and military/defense satellites.

Loading next visibility...
Identifier
60544, 2024-149CE
Orbit
SSO
Country
Flag of USUS
Related business
Manufacturer
Capella Space
Mission
Operational Commercial Radar Imaging
Bus & Motor
ACADIA, Unknown motor
Mass
180 kg wet, ~150 kg dry
Launch date (UTC)
2024-08-16 (1 year ago)
Launch vehicle
FALCON 9
Launch site
Air Force Western Test Range (AFWTR)
Object type
Payload
Rocket body
Debris
Shape & HBR
Box + 2 Pan + 1 Dish + 1 Rod, 1.8 m
Radar Cross Section
0.463 m², Large (>1 m²)

Expand to show TLE details & history
Last TLE update: 21 hours ago

TLE from 21 hours ago
0 CAPELLA-15 (ACADIA)
1 60544U 24149CE  26023.23474400  .00010214  00000-0  10003-2 0  9990
2 60544  97.6910  99.6577 0004171 187.9566 172.1588 14.92461214 78237
Epoch: 2026-01-23T05:38Z
TLE epoch observation values (Epoch: 2026-01-23T05:38:01.881Z)
Latitude
-0.00002°
Longitude
-107.42661°
Altitude
596.189 km
Speed
7.56 km/s
True Right ascension
06h 38m 37s
True Declination
0° 00' 00"
Sunlit
Object was in full shadow at epoch
Visualization orbit readout
Latitude
Unknown
Longitude
Unknown
Altitude
Unknown
Speed
Unknown
Apparent Right ascension
Unknown
Apparent Declination
Unknown
Sunlit
N/A
Visualization observer readout
Local Sidereal Time
04:11:13
Azimuth
Unknown
Elevation
Unknown
Doppler factor
Unknown
Orbital elements
Apogee altitude
590.184 km
Perigee altitude
584.374 km
Semi-major axis
6,965.416 km
Eccentricity
0.00042
Inclination
97.691°
RAAN
99.6577°
Arg. of periapsis
187.9566°
True anomaly
172.16532°
Mean anomaly
172.1588°
Eccentric anomaly
172.16206°
Mean motion
3.73356 °/min
Orbital period
96.42 mins
BSTAR
0.0010003
Loading maneuver chart data...
Computing Atmospheric mass density...
Loading historical data...
Loading historical data...
Loading historical data...
Loading historical data...
Loading historical data...
Loading historical data...
Loading historical data...

Documentation

Showing up to 5 results
|